Temperature
21 20 20 20 20 19 19 19 19 18 18 18 18 18 18 18 18 18 18 18 18 18 18 18 17 17 17 17 17 17 17 17 17 17 17 17 17 17 17 17 17 17 17
20 20 20 20 19 19 19 19 19 18 18 18 18 18 18 18 18 18 18 18 18 18 18 18 17 17 17 17 17 17 17 17 17 17 17 17 17 17 17 17 17 17 17
20 20 20 20 20 19 19 19 19 19 18 18 18 18 18 18 18 18 18 18 18 18 18 18 17 17 17 17 17 17 17 17 17 17 17 17 17 17 17 17 17 17 17
20 20 20 20 20 20 19 19 19 19 18 18 18 18 18 18 18 18 18 18 18 18 18 17 17 17 17 17 17 17 17 17 17 17 17 17 17 17 16 17 17 17 17
21 20 20 20 20 20 20 19 19 19 18 18 18 18 18 18 18 18 18 18 18 18 18 17 17 17 17 17 17 17 17 17 17 17 17 17 17 17 16 16 17 17 17
21 21 21 20 20 20 20 19 19 19 18 18 18 18 18 18 18 18 18 18 18 18 18 18 17 17 17 17 17 17 17 17 17 17 17 17 17 17 17 16 16 16 17
21 21 20 20 20 20 19 19 19 19 18 18 18 18 18 18 18 18 18 17 18 18 18 17 17 17 17 17 17 17 17 17 17 17 17 17 17 17 16 16 16 16 16
20 20 20 20 20 20 20 19 19 19 18 18 18 18 18 18 18 18 17 17 17 17 17 17 17 17 17 17 17 17 17 17 17 17 17 16 16 16 16 16 16 15 15
20 20 20 20 20 20 20 19 19 19 19 18 18 18 18 18 18 18 17 17 17 17 17 17 17 17 17 17 17 17 17 17 17 16 16 16 16 16 16 16 16 15 15
20 20 20 20 20 20 20 19 19 19 19 18 18 18 18 18 18 18 17 17 17 17 17 17 17 17 17 17 17 17 16 16 16 16 16 16 16 16 16 16 16 15 15
20 20 20 20 20 20 19 19 19 18 18 18 18 18 18 18 17 17 17 17 17 17 17 17 17 17 17 17 17 17 16 16 16 16 16 16 16 16 16 16 15 15 15
20 19 19 19 19 19 19 19 19 18 18 18 18 18 18 17 17 17 17 17 16 16 16 16 16 16 16 16 16 16 16 16 16 16 16 16 16 16 15 15 15 15 15
19 19 19 19 19 19 19 18 18 18 18 18 18 17 17 17 17 17 17 17 16 16 16 16 16 16 16 16 16 16 16 16 16 16 16 15 15 15 15 15 15 15 15
19 19 19 19 19 18 18 18 18 18 18 17 17 17 17 17 17 17 16 16 16 16 16 16 15 15 15 15 15 15 15 15 15 15 15 15 15 15 15 15 15 15 15
19 19 18 18 18 18 18 18 18 17 17 17 17 17 17 16 16 16 16 16 16 15 15 15 15 15 15 15 15 15 15 15 15 15 15 15 15 15 14 14 14 14 14
19 19 19 18 18 18 18 17 17 17 17 17 16 16 16 16 16 16 16 15 15 15 15 15 15 15 15 15 15 14 14 14 15 15 15 14 14 14 14 14 14 14 14
19 18 18 18 18 18 17 17 17 17 17 16 16 16 16 16 15 15 15 15 15 15 15 15 15 15 15 14 14 14 14 14 14 14 14 14 14 14 14 14 14 14 13
18 18 18 18 18 18 17 17 17 16 16 16 16 16 15 15 15 15 15 15 14 14 14 14 14 14 14 14 14 14 14 14 14 14 13 13 13 13 13 13 13 13 13
18 18 18 18 18 17 17 17 16 16 16 16 16 15 15 15 15 14 14 14 14 14 14 14 14 14 13 13 13 14 14 13 13 13 13 13 13 13 13 13 13 13 13
18 18 17 17 17 17 16 16 16 16 16 16 15 15 15 14 14 14 14 14 14 14 13 13 13 13 13 13 13 13 13 13 13 13 13 13 13 13 13 13 13 13 13
17 17 17 17 16 16 16 16 15 15 15 15 15 15 14 14 14 14 14 14 14 13 13 13 13 13 13 13 12 12 13 13 13 13 12 12 12 12 12 12 12 12 12
17 16 16 16 16 15 15 15 15 15 15 15 14 14 14 14 13 14 14 13 13 13 13 12 12 12 12 12 12 12 12 12 12 12 12 12 12 12 12 11 11 11 11
16 16 16 15 15 15 15 15 15 14 14 14 14 14 14 14 13 13 13 13 13 13 12 12 12 12 12 12 12 12 12 12 12 11 11 11 11 11 11 11 11 11 11
16 15 15 15 15 14 14 14 14 14 14 14 14 14 14 14 13 13 13 13 13 12 12 12 12 12 12 12 12 12 11 11 11 11 11 11 10 11 11 11 11 11 10
15 15 15 15 15 14 14 14 14 14 13 13 13 13 13 13 13 13 13 12 12 12 12 12 12 12 12 12 12 11 11 11 11 11 11 10 10 10 10 10 10 10 10
15 15 15 15 14 14 14 14 13 13 13 13 13 13 13 13 13 12 12 12 12 12 12 11 11 11 11 11 11 11 11 11 10 10 10 10 10 10 10 9 9 9 9
Wind_Speed
4 3 4 4 4 3 3 3 2 2 1 1 1 1 1 0 1 1 1 1 1 2 2 1 2 2 2 2 3 3 3 2 2 2 1 1 1 1 1 2 2 3 4
3 4 4 4 4 5 4 4 3 2 2 1 1 1 1 1 0 1 1 1 0 1 2 2 2 2 2 3 3 3 2 1 2 2 1 1 2 1 0 1 2 2 2
6 6 5 5 5 5 6 5 5 4 3 2 2 2 2 2 2 2 2 2 1 0 0 1 2 2 3 3 3 3 3 2 1 1 2 2 1 1 1 1 1 2 1
5 5 6 5 6 6 5 4 4 4 3 3 3 3 2 1 1 0 0 1 1 1 0 1 2 2 2 2 3 3 3 3 2 1 1 1 2 1 1 1 1 1 1
5 6 6 6 4 4 4 4 4 4 3 3 3 3 2 1 0 0 1 1 1 1 0 1 1 1 1 2 2 2 3 3 2 2 1 1 1 1 2 2 2 1 1
4 4 3 3 3 3 4 4 4 3 3 3 3 3 3 2 1 0 0 1 1 1 1 1 1 1 2 2 2 2 3 2 2 1 1 2 2 2 2 3 2 2 2
4 3 3 3 4 4 4 4 5 3 3 3 3 3 3 3 2 2 1 0 1 1 1 0 1 1 1 1 2 2 2 2 2 2 2 2 2 2 2 2 2 2 2
3 3 3 4 4 5 5 5 5 4 3 3 2 2 2 2 1 1 1 1 1 1 1 1 1 1 1 1 1 1 1 1 2 2 2 2 2 2 3 3 2 1 1
4 3 3 3 3 4 5 5 5 4 3 2 2 2 2 2 1 1 1 1 1 1 0 1 1 1 1 1 1 1 1 1 1 1 1 1 1 2 2 3 3 3 2
3 3 3 3 3 4 4 4 4 4 3 3 2 2 1 1 1 1 1 0 1 0 1 1 1 1 1 1 1 1 0 1 1 1 1 1 1 1 1 2 2 3 3
4 3 2 2 2 3 3 3 4 4 3 3 3 2 1 1 1 1 0 0 0 0 0 1 1 1 1 1 1 1 1 1 0 1 1 1 1 1 1 1 2 2 2
3 3 2 2 3 3 3 3 3 3 3 3 3 2 2 1 1 1 1 1 1 1 1 1 1 1 1 1 1 1 1 1 0 0 0 1 1 1 1 1 2 2 3
2 2 3 3 2 2 2 2 3 3 3 3 3 2 2 2 2 2 2 1 1 1 0 1 1 1 1 1 1 1 1 1 1 1 1 2 1 2 2 2 2 2 2
2 3 2 2 2 2 2 1 1 2 2 2 2 2 2 3 3 2 2 2 2 1 1 1 1 1 1 1 1 1 1 0 0 1 1 2 2 3 3 2 2 2 2
2 3 3 2 1 1 1 1 1 1 2 2 2 2 2 1 1 1 1 1 1 1 1 1 1 1 1 1 1 1 1 0 0 1 1 2 2 2 2 2 2 2 2
3 3 3 2 2 1 1 0 0 1 2 2 2 1 1 1 1 0 0 1 0 0 0 1 1 1 0 1 2 1 1 0 1 1 2 2 2 2 2 2 3 3 3
3 3 3 3 3 2 2 2 1 1 1 1 1 1 1 1 0 0 1 1 0 0 0 0 0 1 1 1 0 1 1 1 1 1 2 2 2 2 2 2 2 3 4
2 2 2 2 2 2 2 1 1 1 2 1 1 1 1 1 1 0 0 0 0 0 1 1 1 0 1 1 1 1 1 0 1 2 2 2 2 2 1 1 2 2 3
2 2 1 1 1 1 1 2 1 1 1 1 2 1 1 1 1 1 2 2 1 1 1 1 0 0 1 1 2 2 0 1 1 2 2 1 2 3 2 1 2 3 4
2 2 2 2 1 0 1 2 1 1 2 3 2 2 2 2 2 3 2 1 1 1 1 1 0 0 1 2 2 2 1 0 1 2 2 2 2 3 2 1 2 3 5
2 2 2 1 1 1 3 2 2 3 3 3 2 1 2 2 2 2 1 1 1 0 0 1 1 1 1 1 1 1 0 1 1 1 2 2 3 3 3 1 1 3 3
2 2 2 0 1 1 2 2 3 4 2 1 1 1 2 2 1 1 1 1 1 1 0 1 2 2 1 1 1 1 1 1 1 2 2 2 3 2 2 2 3 2 1
2 1 1 0 1 1 2 3 4 2 2 2 2 2 1 1 1 2 2 1 1 1 0 0 1 2 2 2 2 1 1 1 1 2 2 2 2 2 2 2 2 1 1
2 1 1 0 2 2 2 3 3 2 2 2 2 1 1 1 0 1 1 2 1 1 1 1 1 2 2 2 1 1 1 1 1 2 2 2 2 2 3 3 2 1 1
1 1 1 2 3 3 2 3 3 2 2 1 1 1 1 1 1 1 1 1 1 2 3 2 2 1 2 3 2 1 1 1 1 0 1 2 2 3 3 3 2 2 2
1 1 1 2 3 2 2 3 2 2 3 2 1 1 1 1 1 1 0 1 0 1 1 2 2 2 2 2 1 1 1 1 2 2 1 1 1 1 1 2 2 2 2
Wind_Direction
207 185 192 187 173 175 181 190 192 192 129 97 122 147 161 49 19 322 302 274 244 219 200 187 167 158 156 160 147 135 127 124 118 103 46 11 360 218 211 193 200 217 226
198 194 193 187 188 195 198 197 198 188 175 160 151 141 129 108 102 4 5 337 288 217 202 172 170 159 154 150 149 145 132 133 129 133 114 11 356 356 241 191 201 221 219
206 206 205 204 202 205 205 206 202 194 188 162 115 92 74 47 31 21 9 350 356 353 198 178 167 161 161 172 175 163 156 167 160 148 151 158 228 308 341 261 215 213 218
205 204 207 211 212 213 206 202 197 193 191 169 153 150 154 187 249 236 325 349 351 340 215 177 160 156 164 179 193 179 171 167 186 201 206 195 167 178 320 333 306 243 242
199 204 206 206 212 204 191 180 174 186 189 179 174 165 179 199 219 56 16 355 358 350 4 158 144 151 164 175 181 169 166 174 185 185 177 175 167 186 199 273 307 333 301
187 198 197 179 195 193 180 162 158 177 185 178 180 181 185 184 164 174 323 338 356 359 22 103 134 157 162 174 180 170 164 169 169 179 186 184 181 189 191 230 265 293 305
180 182 166 172 184 179 176 162 159 170 168 160 171 181 180 179 186 201 198 273 343 331 342 53 116 140 179 179 164 155 169 171 173 189 206 209 216 191 179 190 234 276 301
168 179 184 184 185 177 170 165 167 176 170 160 164 146 142 159 183 187 178 181 231 275 328 60 78 98 122 132 126 144 174 164 188 211 202 209 224 201 186 186 191 250 287
179 186 187 184 180 177 174 171 167 167 163 162 152 126 132 151 170 179 179 205 233 249 66 80 80 79 88 96 114 121 162 153 184 211 211 219 238 219 210 197 192 200 252
186 183 186 188 188 180 172 168 170 171 162 149 151 150 144 162 153 128 118 175 289 272 105 90 91 94 95 102 109 119 169 148 230 222 210 233 242 230 208 202 207 209 220
189 188 192 182 158 137 145 154 162 158 150 153 156 152 162 170 135 133 180 242 310 279 167 132 120 122 113 114 112 114 107 123 329 303 247 257 240 221 224 216 218 221 221
181 175 165 142 128 125 134 144 151 162 172 168 160 168 163 154 183 217 231 221 248 248 194 147 137 157 167 151 143 174 166 152 135 303 280 278 261 251 248 229 230 232 227
139 129 127 124 125 127 132 150 162 173 175 164 169 171 173 194 219 235 239 233 236 242 185 137 162 196 196 158 155 156 169 167 212 232 229 256 236 255 258 242 236 238 233
142 136 135 139 133 123 116 129 159 166 162 164 181 190 208 219 227 229 228 232 223 216 214 187 187 201 196 169 165 149 139 123 307 277 252 252 235 238 241 245 234 227 229
137 146 151 153 136 128 116 116 118 129 144 154 181 217 225 226 228 232 233 224 199 206 189 167 165 158 175 199 165 168 188 170 330 316 283 261 249 241 237 242 226 210 226
167 156 152 146 163 178 178 155 153 146 142 153 186 215 199 215 233 238 99 90 110 147 117 183 192 180 225 88 131 152 198 213 255 292 308 295 291 283 266 255 235 214 225
175 169 173 175 180 189 187 193 205 161 131 129 168 187 169 153 244 107 74 64 32 73 3 267 198 214 311 48 121 134 171 206 259 276 295 305 313 310 277 275 271 265 252
195 193 176 169 167 163 168 167 151 151 146 155 222 214 213 231 264 152 147 288 318 293 256 246 240 238 344 44 65 81 131 227 295 289 283 282 300 307 293 275 285 283 284
174 183 176 158 144 154 151 123 126 158 162 212 233 225 214 232 243 246 254 259 260 285 285 269 245 326 322 20 70 87 80 9 324 316 323 309 297 315 318 283 287 299 302
144 140 108 94 99 160 141 136 187 222 247 247 241 231 213 213 221 227 234 246 233 252 287 309 293 174 328 17 45 95 142 302 313 337 336 339 340 330 339 263 268 286 295
130 108 96 97 180 165 153 172 210 242 254 253 247 244 231 221 222 219 214 197 182 133 7 343 325 329 311 340 25 52 157 228 272 316 317 324 347 348 345 353 317 285 295
100 101 112 295 272 165 163 192 234 254 259 245 234 247 247 227 204 190 212 206 179 178 284 344 339 330 321 317 313 307 270 236 230 277 294 308 325 341 349 345 327 327 356
122 112 137 263 299 237 185 210 248 249 222 213 230 248 243 227 201 188 196 175 153 177 243 303 303 310 321 324 333 332 318 331 266 276 294 315 330 338 342 353 5 27 36
128 123 111 343 299 290 253 235 244 221 199 214 237 252 253 261 203 173 173 165 180 212 219 221 260 297 311 316 325 323 309 312 314 326 342 357 13 16 360 2 7 8 2
150 149 178 243 267 282 280 262 244 202 197 222 227 226 229 226 221 208 195 194 205 199 195 210 211 227 275 276 259 226 250 255 264 349 27 25 16 4 360 1 0 355 359
180 193 227 257 279 288 289 278 246 200 190 207 215 210 207 207 209 215 293 5 198 119 169 204 204 235 250 280 209 178 85 102 124 105 59 11 351 337 340 348 351 351 338
Height
1520 1521 1522 1523 1523 1524 1524 1525 1525 1525 1525 1524 1524 1525 1526 1527 1528 1529 1530 1530 1530 1530 1531 1531 1531 1532 1533 1533 1534 1535 1536 1537 1538 1538 1539 1540 1541 1542 1543 1544 1544 1545 1546
1519 1519 1520 1522 1522 1523 1524 1524 1525 1525 1525 1525 1525 1526 1527 1528 1529 1529 1530 1530 1530 1531 1531 1531 1531 1532 1533 1533 1534 1535 1535 1536 1538 1538 1539 1539 1541 1541 1542 1542 1543 1544 1544
1517 1518 1519 1520 1521 1522 1523 1523 1524 1525 1525 1526 1526 1527 1528 1528 1529 1530 1530 1530 1530 1530 1531 1531 1531 1532 1532 1533 1533 1534 1535 1536 1537 1538 1539 1539 1539 1540 1541 1541 1542 1542 1543
1516 1517 1518 1519 1520 1521 1522 1523 1524 1524 1525 1526 1527 1527 1528 1528 1529 1530 1530 1531 1531 1531 1531 1531 1531 1531 1532 1532 1533 1534 1534 1535 1536 1537 1538 1539 1539 1539 1539 1540 1540 1541 1541
1514 1515 1516 1518 1519 1521 1522 1522 1522 1523 1525 1526 1527 1528 1528 1529 1529 1530 1530 1530 1530 1530 1530 1530 1530 1530 1531 1531 1532 1533 1533 1534 1535 1536 1536 1536 1537 1538 1538 1538 1538 1539 1539
1512 1514 1515 1517 1519 1520 1521 1521 1522 1523 1524 1525 1526 1527 1528 1528 1529 1529 1529 1530 1530 1530 1530 1530 1529 1530 1530 1530 1530 1531 1532 1533 1533 1534 1534 1535 1535 1535 1536 1535 1535 1536 1536
1511 1512 1514 1516 1517 1518 1519 1520 1521 1522 1524 1525 1525 1526 1527 1528 1528 1528 1529 1529 1529 1529 1529 1529 1529 1529 1529 1529 1529 1530 1530 1531 1531 1532 1532 1533 1533 1533 1533 1533 1533 1533 1533
1509 1511 1512 1514 1515 1516 1517 1519 1520 1522 1523 1524 1525 1526 1526 1527 1527 1528 1528 1528 1528 1528 1528 1528 1528 1528 1528 1528 1528 1529 1529 1529 1530 1530 1530 1530 1531 1531 1531 1531 1531 1531 1531
1508 1510 1511 1513 1514 1515 1516 1517 1519 1521 1522 1523 1524 1525 1525 1525 1526 1526 1527 1527 1527 1527 1527 1527 1527 1527 1527 1527 1527 1527 1527 1527 1527 1528 1528 1528 1528 1529 1529 1529 1529 1530 1528
1507 1508 1510 1511 1512 1514 1515 1516 1518 1520 1521 1522 1523 1524 1524 1525 1524 1524 1525 1525 1525 1525 1525 1525 1525 1525 1525 1525 1525 1525 1526 1526 1526 1526 1525 1525 1526 1526 1526 1526 1526 1527 1527
1506 1507 1509 1510 1512 1513 1514 1516 1517 1518 1520 1520 1521 1522 1522 1523 1523 1522 1523 1523 1523 1523 1523 1523 1523 1523 1523 1523 1523 1523 1523 1523 1523 1523 1523 1523 1523 1523 1523 1523 1523 1524 1524
1506 1507 1508 1510 1511 1512 1513 1515 1516 1517 1518 1519 1520 1520 1520 1521 1521 1520 1521 1521 1521 1521 1521 1521 1521 1521 1521 1521 1521 1521 1521 1521 1520 1521 1521 1521 1521 1521 1521 1521 1520 1521 1521
1505 1506 1508 1509 1511 1512 1513 1514 1515 1516 1517 1517 1518 1518 1518 1519 1519 1518 1519 1519 1519 1519 1518 1519 1519 1519 1519 1519 1519 1519 1519 1518 1518 1518 1518 1518 1518 1518 1518 1518 1517 1517 1517
1505 1506 1507 1509 1510 1512 1513 1513 1514 1515 1515 1516 1516 1516 1516 1516 1516 1517 1517 1516 1516 1516 1516 1516 1516 1517 1516 1516 1516 1516 1516 1516 1516 1516 1516 1516 1515 1515 1515 1515 1514 1514 1514
1504 1506 1507 1509 1510 1511 1512 1513 1513 1514 1514 1515 1515 1514 1514 1514 1514 1514 1514 1514 1514 1514 1513 1513 1513 1514 1514 1514 1514 1514 1514 1513 1513 1513 1513 1513 1513 1512 1512 1512 1512 1511 1511
1504 1505 1507 1508 1509 1510 1511 1512 1513 1513 1513 1513 1513 1513 1513 1513 1512 1512 1511 1511 1511 1511 1511 1511 1510 1510 1511 1511 1511 1511 1511 1511 1510 1510 1510 1510 1510 1509 1509 1509 1509 1509 1508
1504 1505 1506 1507 1508 1509 1510 1511 1511 1512 1512 1512 1512 1512 1511 1511 1510 1509 1509 1508 1508 1508 1508 1508 1508 1508 1508 1508 1508 1509 1508 1508 1508 1507 1507 1506 1506 1506 1506 1506 1506 1505 1504
1505 1505 1506 1507 1507 1508 1509 1509 1510 1510 1510 1510 1510 1510 1509 1508 1508 1507 1506 1506 1506 1505 1505 1505 1505 1505 1505 1506 1506 1506 1506 1505 1505 1505 1504 1504 1503 1503 1503 1502 1502 1501 1500
1505 1505 1506 1506 1507 1507 1508 1508 1508 1508 1508 1508 1508 1507 1507 1506 1505 1505 1504 1504 1503 1503 1502 1502 1502 1502 1502 1503 1503 1503 1502 1502 1502 1502 1501 1501 1500 1500 1500 1499 1498 1497 1497
1504 1504 1505 1505 1506 1506 1507 1507 1507 1507 1506 1506 1506 1505 1505 1504 1504 1503 1502 1502 1501 1501 1500 1500 1500 1500 1500 1500 1500 1500 1499 1499 1499 1498 1498 1498 1497 1497 1496 1495 1494 1493 1493
1503 1503 1504 1504 1504 1505 1505 1505 1505 1505 1505 1505 1504 1504 1503 1503 1502 1501 1501 1500 1500 1499 1498 1497 1497 1497 1497 1498 1498 1497 1497 1496 1496 1495 1495 1495 1494 1494 1493 1492 1491 1490 1490
1502 1502 1503 1503 1503 1504 1503 1503 1502 1503 1504 1503 1502 1501 1501 1501 1500 1500 1499 1499 1498 1497 1496 1496 1495 1495 1495 1495 1495 1495 1495 1494 1494 1493 1492 1492 1492 1491 1490 1490 1489 1488 1487
1501 1502 1502 1502 1502 1502 1501 1501 1501 1501 1501 1501 1500 1500 1499 1499 1498 1498 1497 1497 1496 1495 1494 1494 1493 1493 1494 1493 1493 1493 1493 1492 1492 1491 1491 1490 1489 1489 1488 1487 1486 1485 1484
1500 1501 1501 1501 1500 1500 1499 1499 1499 1499 1499 1498 1498 1498 1497 1497 1497 1496 1496 1495 1494 1493 1493 1492 1491 1492 1492 1491 1490 1490 1490 1489 1489 1489 1488 1488 1487 1486 1485 1484 1483 1482 1481
1499 1500 1500 1499 1499 1498 1497 1497 1497 1497 1496 1496 1495 1495 1495 1495 1495 1494 1494 1493 1493 1492 1492 1491 1490 1490 1489 1489 1488 1488 1487 1486 1486 1486 1485 1484 1483 1482 1482 1481 1480 1479 1479
1498 1498 1498 1497 1496 1495 1494 1494 1494 1494 1494 1493 1493 1493 1493 1493 1493 1492 1492 1492 1491 1491 1491 1490 1490 1489 1488 1487 1486 1486 1485 1484 1484 1483 1482 1481 1481 1480 1479 1479 1478 1477 1476